TimePDT,TemperatureF,Dew PointF,Humidity,Sea Level PressureIn,VisibilityMPH,Wind Direction,Wind SpeedMPH,Gust SpeedMPH,PrecipitationIn,Events,Conditions,WindDirDegrees,DateUTC
12:15 AM,62.6,32.0,32,29.98,10.0,WNW,10.4,-,N/A,,Clear,300,2013-06-23 07:15:00
12:35 AM,62.6,32.0,32,29.98,10.0,WNW,11.5,-,N/A,,Clear,300,2013-06-23 07:35:00
12:55 AM,62.6,32.0,32,29.97,10.0,WNW,12.7,-,N/A,,Clear,300,2013-06-23 07:55:00
1:15 AM,62.6,32.0,32,29.97,10.0,WNW,10.4,-,N/A,,Clear,300,2013-06-23 08:15:00
1:35 AM,60.8,32.0,34,29.97,10.0,West,10.4,-,N/A,,Clear,280,2013-06-23 08:35:00
1:55 AM,60.8,32.0,34,29.96,10.0,West,9.2,-,N/A,,Clear,280,2013-06-23 08:55:00
2:15 AM,62.6,32.0,32,29.95,10.0,West,11.5,-,N/A,,Clear,280,2013-06-23 09:15:00
2:35 AM,59.0,32.0,36,29.95,10.0,WNW,8.1,-,N/A,,Clear,290,2013-06-23 09:35:00
2:55 AM,62.6,32.0,32,29.95,10.0,WNW,11.5,-,N/A,,Clear,290,2013-06-23 09:55:00
3:15 AM,60.8,32.0,34,29.94,10.0,West,10.4,-,N/A,,Clear,280,2013-06-23 10:15:00
3:35 AM,62.6,32.0,32,29.94,10.0,WNW,15.0,-,N/A,,Clear,300,2013-06-23 10:35:00
3:55 AM,62.6,35.6,37,29.94,10.0,West,15.0,-,N/A,,Clear,280,2013-06-23 10:55:00
4:15 AM,62.6,35.6,37,29.93,10.0,WNW,15.0,-,N/A,,Clear,290,2013-06-23 11:15:00
4:35 AM,62.6,35.6,37,29.93,10.0,WNW,10.4,17.3,N/A,,Clear,290,2013-06-23 11:35:00
4:55 AM,59.0,33.8,39,29.93,10.0,West,8.1,-,N/A,,Clear,280,2013-06-23 11:55:00
5:15 AM,59.0,33.8,39,29.93,10.0,West,8.1,-,N/A,,Clear,280,2013-06-23 12:15:00
5:35 AM,60.8,35.6,39,29.93,10.0,WNW,9.2,-,N/A,,Clear,290,2013-06-23 12:35:00
5:55 AM,62.6,35.6,37,29.93,10.0,WNW,12.7,18.4,N/A,,Clear,290,2013-06-23 12:55:00
6:15 AM,60.8,35.6,39,29.93,10.0,WNW,10.4,17.3,N/A,,Clear,290,2013-06-23 13:15:00
6:35 AM,62.6,37.4,39,29.93,10.0,WNW,11.5,17.3,N/A,,Clear,300,2013-06-23 13:35:00
6:55 AM,64.4,37.4,37,29.93,10.0,WNW,11.5,18.4,N/A,,Clear,300,2013-06-23 13:55:00
7:15 AM,64.4,35.6,34,29.94,10.0,WNW,13.8,17.3,N/A,,Clear,290,2013-06-23 14:15:00
7:35 AM,66.2,37.4,35,29.93,10.0,WNW,11.5,18.4,N/A,,Clear,290,2013-06-23 14:35:00
7:55 AM,66.2,37.4,35,29.94,10.0,WNW,13.8,-,N/A,,Clear,290,2013-06-23 14:55:00
8:15 AM,68.0,37.4,33,29.94,10.0,WNW,11.5,-,N/A,,Clear,290,2013-06-23 15:15:00
8:35 AM,68.0,35.6,30,29.94,10.0,NW,15.0,19.6,N/A,,Clear,310,2013-06-23 15:35:00
8:55 AM,68.0,35.6,30,29.93,10.0,NW,15.0,21.9,N/A,,Clear,310,2013-06-23 15:55:00
9:15 AM,69.8,33.8,27,29.93,10.0,NW,20.7,25.3,N/A,,Clear,320,2013-06-23 16:15:00
9:35 AM,71.6,32.0,23,29.93,10.0,WNW,18.4,25.3,N/A,,Clear,300,2013-06-23 16:35:00
9:55 AM,71.6,32.0,23,29.93,10.0,NW,21.9,28.8,N/A,,Clear,310,2013-06-23 16:55:00
10:15 AM,71.6,32.0,23,29.94,10.0,NW,23.0,29.9,N/A,,Clear,310,2013-06-23 17:15:00
10:35 AM,71.6,32.0,23,29.94,10.0,NW,19.6,29.9,N/A,,Clear,320,2013-06-23 17:35:00
10:55 AM,71.6,32.0,23,29.94,10.0,NW,21.9,27.6,N/A,,Clear,310,2013-06-23 17:55:00
11:15 AM,71.6,32.0,23,29.94,10.0,NW,23.0,28.8,N/A,,Clear,310,2013-06-23 18:15:00
11:35 AM,71.6,32.0,23,29.94,10.0,NW,19.6,28.8,N/A,,Clear,320,2013-06-23 18:35:00
11:55 AM,73.4,32.0,22,29.94,10.0,NW,24.2,27.6,N/A,,Clear,320,2013-06-23 18:55:00
12:15 PM,73.4,32.0,22,29.94,10.0,NW,23.0,31.1,N/A,,Clear,320,2013-06-23 19:15:00
12:35 PM,73.4,33.8,23,29.93,10.0,NW,23.0,29.9,N/A,,Clear,320,2013-06-23 19:35:00
12:55 PM,71.6,33.8,25,29.94,10.0,NW,23.0,32.2,N/A,,Clear,320,2013-06-23 19:55:00
1:15 PM,75.2,35.6,24,29.93,10.0,NW,21.9,31.1,N/A,,Clear,320,2013-06-23 20:15:00
1:35 PM,73.4,35.6,25,29.93,10.0,NW,23.0,33.4,N/A,,Clear,310,2013-06-23 20:35:00
1:55 PM,73.4,35.6,25,29.92,10.0,NW,21.9,31.1,N/A,,Clear,320,2013-06-23 20:55:00
2:15 PM,73.4,35.6,25,29.92,10.0,NW,21.9,31.1,N/A,,Clear,320,2013-06-23 21:15:00
2:35 PM,73.4,35.6,25,29.91,10.0,NW,24.2,31.1,N/A,,Clear,320,2013-06-23 21:35:00
2:55 PM,71.6,35.6,27,29.91,10.0,NW,20.7,28.8,N/A,,Clear,310,2013-06-23 21:55:00
3:15 PM,71.6,37.4,29,29.91,10.0,NW,21.9,28.8,N/A,,Clear,310,2013-06-23 22:15:00
3:35 PM,71.6,37.4,29,29.91,10.0,NW,21.9,29.9,N/A,,Clear,310,2013-06-23 22:35:00
3:55 PM,69.8,37.4,31,29.91,10.0,NW,24.2,29.9,N/A,,Clear,310,2013-06-23 22:55:00
4:15 PM,71.6,39.2,31,29.90,10.0,NW,25.3,29.9,N/A,,Clear,310,2013-06-23 23:15:00
4:35 PM,71.6,39.2,31,29.89,10.0,WNW,21.9,29.9,N/A,,Clear,300,2013-06-23 23:35:00
4:55 PM,69.8,39.2,33,29.89,10.0,WNW,19.6,29.9,N/A,,Clear,300,2013-06-23 23:55:00
5:15 PM,68.0,41.0,37,29.89,10.0,NW,19.6,26.5,N/A,,Clear,310,2013-06-24 00:15:00
5:35 PM,71.6,41.0,33,29.88,10.0,NW,21.9,28.8,N/A,,Clear,310,2013-06-24 00:35:00
5:55 PM,71.6,41.0,33,29.88,10.0,NW,26.5,32.2,N/A,,Clear,310,2013-06-24 00:55:00
6:15 PM,69.8,41.0,35,29.88,10.0,NW,23.0,31.1,N/A,,Clear,310,2013-06-24 01:15:00
6:35 PM,69.8,41.0,35,29.88,10.0,WNW,23.0,33.4,N/A,,Clear,300,2013-06-24 01:35:00
6:55 PM,68.0,41.0,37,29.89,10.0,WNW,18.4,26.5,N/A,,Clear,300,2013-06-24 01:55:00
7:15 PM,68.0,41.0,37,29.89,10.0,NW,23.0,31.1,N/A,,Clear,310,2013-06-24 02:15:00
7:35 PM,66.2,41.0,40,29.89,10.0,WNW,18.4,27.6,N/A,,Clear,300,2013-06-24 02:35:00
7:55 PM,66.2,41.0,40,29.89,10.0,WNW,18.4,26.5,N/A,,Clear,300,2013-06-24 02:55:00
8:15 PM,64.4,41.0,42,29.89,10.0,WNW,19.6,29.9,N/A,,Clear,290,2013-06-24 03:15:00
8:35 PM,64.4,41.0,42,29.89,10.0,WNW,24.2,31.1,N/A,,Clear,300,2013-06-24 03:35:00
8:55 PM,62.6,41.0,45,29.89,10.0,WNW,19.6,29.9,N/A,,Clear,300,2013-06-24 03:55:00
9:15 PM,62.6,42.8,48,29.90,10.0,WNW,19.6,28.8,N/A,,Clear,300,2013-06-24 04:15:00
9:35 PM,62.6,41.0,45,29.90,10.0,WNW,20.7,31.1,N/A,,Clear,290,2013-06-24 04:35:00
9:55 PM,62.6,39.2,42,29.90,10.0,WNW,21.9,31.1,N/A,,Clear,300,2013-06-24 04:55:00
10:15 PM,62.6,39.2,42,29.90,10.0,WNW,19.6,26.5,N/A,,Clear,300,2013-06-24 05:15:00
10:35 PM,62.6,39.2,42,29.90,10.0,WNW,21.9,31.1,N/A,,Clear,300,2013-06-24 05:35:00
10:55 PM,62.6,41.0,45,29.89,10.0,WNW,18.4,-,N/A,,Clear,290,2013-06-24 05:55:00
11:15 PM,62.6,41.0,45,29.90,10.0,WNW,16.1,25.3,N/A,,Clear,300,2013-06-24 06:15:00
11:35 PM,62.6,41.0,45,29.89,10.0,WNW,20.7,28.8,N/A,,Clear,290,2013-06-24 06:35:00
11:55 PM,60.8,42.8,52,29.89,10.0,West,19.6,24.2,N/A,,Clear,270,2013-06-24 06:55:00